Meath Environmental Platform

Observations for Trim Market St

Time AQI Temp °C Hum % Pres Pa CO μg/m³ H₂S μg/m³ NO μg/m³ NO₂ μg/m³ O₃ μg/m³ SO₂ μg/m³ PM1 μg/m³ PM2.5 μg/m³ PM10 μg/m³
Saturday 15 August 2026
20:54 3 20.2 50 56,225 0.19 1.31 1.28 20.98 52.12 0 2.14 4.01 4.54
20:53 3 20.2 50 56,340 0 0 1.28 18.03 57.83 0 1.43 4.02 4.53
20:52 3 20.2 50 56,559 0 0 1.3 15.15 60.55 0 0 2.47 2.72
20:50 3 20.3 49 56,809 0 0.21 1.3 17.11 60.28 0 0.71 2.48 2.73
20:49 3 20.3 49 56,880 0.35 3.21 1.29 14.53 59.23 0 0 2.48 2.73
20:47 3 20.4 49 56,878 0 0 1.29 12.92 63.46 0 0 2.49 3.78
20:45 3 20.4 49 57,014 0 0 1.24 14.21 62.49 0 0 2.5 3.02
20:44 3 20.4 49 57,101 0 0 1.25 11.73 66.74 0 0 1.98 2.18
20:43 3 20.4 49 57,145 0 0 1.24 17.94 57.7 0 0 1.98 2.18
20:41 3 20.5 49 57,365 0 0 1.38 12.9 63.29 0 1.43 3.54 4.51
20:38 3 20.6 48 57,781 0 1.26 1.26 34.36 45.15 0 0 2.01 2.21
20:33 3 20.7 48 58,667 0 0 1.36 10.41 71.54 0 0 3.06 3.37
20:31 3 20.8 48 59,012 0 0 1.34 11.84 63.91 0 0 2.55 2.81
20:29 3 20.8 48 59,340 0 0 1.32 15.21 60.46 0 0 2.04 2.25
20:24 3 21 47 59,802 0 0 1.37 10.81 65.69 0 0 2.06 2.26
20:23 3 21 47 59,808 0 0 1.4 10.23 70.74 0 0 2.06 2.26
20:22 3 21 47 59,816 0 0 1.41 10.12 69.51 0 0 2.58 5.24
20:21 3 21.1 47 59,889 0 0 1.42 10.09 73.92 0 0 2.06 2.27
20:20 3 21.1 47 59,983 0 0.06 1.41 10.07 73.71 0 0 2.06 2.27
20:19 3 21.2 47 60,094 0 1.91 1.42 11.14 74.78 0 0 2.07 2.18